Regional Weather Roundup
Issued by NWS

Home | Current Version | Previous Version | Graphics & Text | Print | Product List | Glossary On
Versions: 1 2 3 4 5 6 7 8 9 10 11 12 13 14 15 16 17 18 19 20 21 22 23 24 25 26 27 28 29 30 31 32 33 34 35 36 37 38 39 40 41 42 43 44 45 46 47 48 49 50
000
ASUS43 KLMK 270810
RWRKY
KENTUCKY REGIONAL WEATHER ROUNDUP
NATIONAL WEATHER SERVICE LOUISVILLE KY
300 AM EST SAT DEC 27 2014

NOTE "FAIR" INDICATES FEW OR NO CLOUDS BELOW 12,000 FEET
WITH NO SIGNIFICANT WEATHER AND/OR OBSTRUCTIONS TO VISIBILITY.

KYZ001>023-026-027-061>063-070>075-270900-
WESTERN AND SOUTH CENTRAL KENTUCKY

CITY           SKY/WX    TMP DP  RH WIND       PRES   REMARKS
PADUCAH        LGT RAIN  48  42  80 S7        30.13F
HENDERSON      CLOUDY    48  36  61 S8        30.14S
OWENSBORO      CLOUDY    47  39  73 S7        30.17S
HOPKINSVILLE   CLOUDY    47  39  74 SE6       30.17F
BOWLING GREEN  CLOUDY    49  37  63 CALM      30.22R
GLASGOW        CLOUDY    47  35  64 S6        30.22R
$$

KYZ024-025-028>034-038-045-046-053-270900-
NORTH CENTRAL KENTUCKY

CITY           SKY/WX    TMP DP  RH WIND       PRES   REMARKS
LOUISVILLE/SDF MOCLDY    49  34  56 S5        30.20R
LOUISVILLE/LOU MOCLDY    47  34  60 CALM      30.20R
FORT KNOX      CLOUDY    48  37  66 SW7       30.19R
$$

KYZ035>037-039>044-047>052-055>060-089>105-270900-
NORTHEAST KENTUCKY

CITY           SKY/WX    TMP DP  RH WIND       PRES   REMARKS
LEXINGTON      CLOUDY    46  34  62 SW5       30.22R
COVINGTON      PTCLDY    41  31  67 CALM      30.19R
FRANKFORT      PTCLDY    46  33  60 S6        30.20R
$$

KYZ054-064>069-076>088-106>120-270900-
SOUTHEAST KENTUCKY

CITY           SKY/WX    TMP DP  RH WIND       PRES   REMARKS
JACKSON        CLOUDY    46  27  47 W5        30.24R
LONDON         CLOUDY    44  33  65 CALM      30.24R
SOMERSET       CLOUDY    43  32  65 CALM      30.25S
MIDDLESBORO    CLOUDY    41  37  86 CALM      30.27R
MONTICELLO     CLOUDY    44  37  76 CALM      30.27R
$$




USA.gov is the U.S. government's official web portal to all federal, state and local government web resources and services.